Regional Weather Roundup
Issued by NWS

Home | Current Version | Previous Version | Graphics & Text | Print | Product List | Glossary Off
Versions: 1 2 3 4 5 6 7 8 9 10 11 12 13 14 15 16 17 18 19 20 21 22 23 24 25 26 27 28 29 30 31 32 33 34 35 36 37 38 39 40 41 42 43 44 45 46 47 48 49 50

779
ASUS43 KMPX 210710
RWRMN
WEATHER ROUNDUP FOR MINNESOTA
NATIONAL WEATHER SERVICE TWIN CITIES/CHANHASSEN MN
100 AM CST WED FEB 21 2018


NOTE: "FAIR" INDICATES FEW OR NO CLOUDS BELOW 12,000 FEET WITH NO
SIGNIFICANT WEATHER AND/OR OBSTRUCTIONS TO VISIBILITY. N/A MEANS
CURRENT SKY AND/OR WEATHER CONDITIONS ARE NOT AVAILABLE.

MNZ060>063-068>070-210800-
   Twin Cities Metro

CITY           SKY/WX    TMP DP  RH WIND       PRES   REMARKS
TWIN CITIES    FAIR       8   2  76 W8        30.40R WCI  -4
ST PAUL        FAIR       8   1  73 NW12      30.41R WCI  -7
CRYSTAL        FAIR       6  -1  73 W7        30.39R WCI  -6
BLAINE         FAIR       7   1  78 W7        30.38R WCI  -5
LAKEVILLE      FAIR       3   0  85 W6        30.40R WCI  -8
EDEN PRAIRIE   FAIR       6   0  76 W9        30.39R WCI  -8
SOUTH ST PAUL  FAIR       9   2  74 W6        30.40R WCI  -1
LAKE ELMO      FAIR       9   1  72 W3        30.39R
$$
MNZ001>005-007-008-013>017-022>024-027-028-210800-
   Northwest Minnesota

CITY           SKY/WX    TMP DP  RH WIND       PRES   REMARKS
BEMIDJI        FAIR      -4  -7  84 SW5       30.24R WCI -14
HALLOCK        FAIR      -6  -9  84 S10       30.21R WCI -23
ROSEAU         FAIR       1  -6  71 SW12      30.18R WCI -15
WARROAD        FAIR       0  -6  78 SW9       30.18R WCI -16
THIEF RVR FALL FAIR      -2  -7  79 SW12      30.24R WCI -20
CROOKSTON      FAIR      -2  -8  78 SW12      30.29R WCI -20
FOSSTON        FAIR      -9 -13  84 S9        30.26R WCI -27
DETROIT LAKES  FAIR       1  -4  78 W7        30.29R WCI -11
MOORHEAD       FAIR       0  -8  71 SW9       30.34R WCI -16
PARK RAPIDS    FAIR      -5 -10  79 S6        30.25R WCI -18
MAHNOMEN       FAIR     -10 -14  82 S9        30.28R WCI -28
$$
MNZ006-009>011-018-025>026-210800-
   North Central Minnesota

CITY           SKY/WX    TMP DP  RH WIND       PRES   REMARKS
BAUDETTE       FAIR      -2  -6  83 S6        30.18R WCI -14
FLAG ISLAND    FAIR      -8 -11  84 S8        30.15R WCI -23
INTL FALLS     FAIR      -4  -7  87 SW5       30.20R WCI -15
WASKISH        FAIR       1  -4  78 SW10      30.22R WCI -14
BIG FORK       FAIR      -6  -9  84 SW3       30.22R
LONGVILLE      FAIR     -13 -17  84 CALM      30.27R
GRAND RAPIDS   FAIR       1  -3  83 W6        30.26R WCI -10
CRANE LAKE     LGT SNOW   3   0  85 CALM      30.24R
ORR            LGT SNOW   0  -6  78 CALM      30.18R
COOK             N/A      1  -2  85 SW5       30.22R WCI  -8
WALKER         FAIR      -1  -5  81 SW7       30.25R WCI -14
$$
MNZ012-019>021-037-210800-
   Northeast Minnesota

CITY           SKY/WX    TMP DP  RH WIND       PRES   REMARKS
DULUTH         FAIR       3  -2  79 NW12      30.23R WCI -13
ELY            CLOUDY     5   0  78 W13G21    30.20R WCI -12
HIBBING        FAIR      -1  -4  87 VRB5      30.23R WCI -11
EVELETH        FLURRIES N/A N/A N/A SW5       30.24R
DULUTH HARBOR  FAIR       9   1  72 SW8       30.33R WCI  -4
TWO HARBORS    FAIR      10   3  72 W8G17     30.22R WCI  -1
GRAND MARAIS     N/A     12   4  70 VRB3      30.22R
G MARAIS ARPRT FLURRIES   3  -2  78 W7G17     30.10R WCI  -9
$$
MNZ029>031-032-039>041-046>048-054>057-064-210800-
   West Central Minnesota

CITY           SKY/WX    TMP DP  RH WIND       PRES   REMARKS
FERGUS FALLS   FAIR      -6  -9  84 W5        30.37R WCI -17
WHEATON        PTCLDY     0  -8  71 SW12      30.40R WCI -18
MORRIS         CLEAR     -4  -9  77 W7        30.37R WCI -18
ALEXANDRIA     FAIR       3  -4  72 W13       30.33R WCI -14
ELBOW LAKE     FAIR      -7 -11  81 SW7       30.36R WCI -21
WADENA         FAIR      -2  -6  84 SW8       30.29R WCI -17
GLENWOOD       FAIR      -2  -6  84 W9        30.35R WCI -18
APPLETON       PTCLDY     1  -6  71 W9        30.40S WCI -14
ORTONVILLE     CLEAR      1  -6  71 W6        30.40R WCI -10
MADISON        CLEAR      5  -2  72 W10       30.42R WCI -10
WILLMAR        FAIR      -6  -9  84 W5        30.41R WCI -17
$$
MNZ033>034-036-042>043-049>051-058-059-210800-
   Central Minnesota

CITY           SKY/WX    TMP DP  RH WIND       PRES   REMARKS
ST CLOUD       FAIR      -1  -4  87 SW7       30.37R WCI -14
SAUK CENTRE    FAIR      -1  -6  80 W7        30.34R WCI -14
PAYNESVILLE    FAIR      -2  -5  85 SW6       30.38R WCI -14
AITKIN         FAIR       0  -4  85 SW3       30.29R
PINE RIVER     FAIR      -2  -8  78 CALM      30.30R FOG
BRAINERD       FAIR      -1  -6  79 SW6       30.30R WCI -13
STAPLES        FAIR      -4  -8  84 W7        30.30R WCI -18
LONG PRAIRIE   FAIR       0  -6  78 SW5       30.32R WCI -10
LITTLE FALLS   FAIR      -2  -8  78 CALM      30.35R
LITCHFIELD     FAIR       0  -2  92 SW3       30.40R
BUFFALO        FAIR       2  -2  81 W3        30.41R
MAPLE LAKE     FAIR       3   0  86 SW5       30.40R WCI  -7
HUTCHINSON     FAIR       1  -3  84 SW7       30.41R WCI -11
$$
MNZ037-044-045-052-053-210800-
   East Central Minnesota

CITY           SKY/WX    TMP DP  RH WIND       PRES   REMARKS
PRINCETON      FAIR       1  -2  85 SW3       30.37R
MORA           FAIR       0  -6  78 CALM      30.36R
CAMBRIDGE        N/A      7  -2  66 W5        30.38R WCI  -2
RUSH CITY      FAIR       1  -4  80 W3        30.36R
MOOSE LAKE     FAIR       3  -2  78 W5        30.30R WCI  -6
HINCKLEY       FAIR       3   0  85 W6        30.34R WCI  -8
CLOQUET        FAIR       1  -4  78 W7          N/A  WCI -11
MCGREGOR       FAIR       1  -2  85 SW3       30.29R
$$
MNZ071>073-080-081-089-090-097-098-210800-
   Southwest Minnesota

CITY           SKY/WX    TMP DP  RH WIND       PRES   REMARKS
MONTEVIDEO     PTCLDY     0  -6  78 W5        30.42R WCI -10
GRANITE FALLS  PTCLDY    -2  -6  82 SW8       30.44R WCI -16
CANBY          PTCLDY     4  -3  71 W7        30.42R WCI  -8
MARSHALL       CLEAR     -1  -7  75 W13       30.42R WCI -19
REDWOOD FALLS  PTCLDY     1  -4  79 W6        30.43R WCI -10
OLIVIA         PTCLDY     3  -2  78 W7        30.42R WCI  -9
PIPESTONE      CLOUDY     0  -6  78 NW7       30.38R WCI -13
WORTHINGTON    CLEAR      2  -3  80 W12       30.41R WCI -15
JACKSON        CLEAR      3  -2  78 W6        30.40S WCI  -8
TRACY          CLOUDY     5  -1  76 W6        30.40R WCI  -6
SLAYTON        CLEAR      1  -4  79 W9        30.39R WCI -14
$$
MNZ065>067-074>077-082>085-091>093-210800-
   South Central Minnesota

CITY           SKY/WX    TMP DP  RH WIND       PRES   REMARKS
MANKATO        FAIR       6   1  80 W8        30.43R WCI  -7
NEW ULM        CLEAR      0  -6  78 W9        30.42R WCI -16
ST JAMES       CLEAR      3  -2  78 W7        30.44R WCI  -9
FAIRMONT       CLEAR      5   0  79 NW9       30.43R WCI  -9
GLENCOE        FAIR       4   0  83 SW3       30.41R
FARIBAULT      FAIR       7   1  78 W7        30.39R WCI  -5
OWATONNA       FAIR       7   1  78 CALM      30.39R
WASECA         FAIR       9   1  72 W7        30.41R WCI  -3
ALBERT LEA     FAIR       9   1  72 NW3       30.39R
$$
MNZ078>079-086>088-094>096-210800-
   Southeast Minnesota

CITY           SKY/WX    TMP DP  RH WIND       PRES   REMARKS
ROCHESTER      MIX PCPN   8   4  83 NW14      30.36R WCI  -8
RED WING       FAIR       9   0  66 NW5       30.39R WCI   0
STANTON        FAIR       8   2  78 W3        30.39R
DODGE CENTER   FAIR       7   1  78 NW6       30.36R WCI  -3
WINONA         FAIR      12   9  85 NW7       30.38R WCI   2
AUSTIN         FAIR       9   3  78 NW9       30.38R WCI  -5
PRESTON        FAIR       8   4  81 NW8       30.35R WCI  -4
$$
ABBREVIATIONS USED IN REMARKS
   TC - TEMPERATURES IN CELSIUS
  WCI - WIND CHILL INDEX
   HX - HEAT INDEX
  VSB - VISIBILITY
$$




USA.gov is the U.S. government's official web portal to all federal, state and local government web resources and services.